QPF
0.11 0.10 0.07 0.08 0.06 0.07 0.05 0.06 0.05 0.05 0.06 0.05 0.05 0.04 0.05 0.04 0.03 0.02 0.02 0.02 0.02 0.02 0.03 0.03 0.04 0.06 0.06 0.03 0.03 0.03 0.03 0.05 0.04 0.03 0.03 0.04 0.04 0.04 0.04 0.04 0.05 0.06 0.04
0.10 0.10 0.09 0.09 0.07 0.07 0.06 0.05 0.05 0.06 0.04 0.03 0.02 0.02 0.03 0.04 0.03 0.02 0.02 0.03 0.04 0.06 0.06 0.03 0.02 0.04 0.04 0.03 0.03 0.03 0.03 0.05 0.04 0.03 0.02 0.03 0.03 0.03 0.03 0.02 0.02 0.03 0.03
0.07 0.08 0.10 0.10 0.08 0.07 0.08 0.07 0.08 0.07 0.05 0.04 0.03 0.03 0.03 0.03 0.03 0.03 0.04 0.06 0.10 0.12 0.06 0.02 0.02 0.02 0.02 0.03 0.03 0.02 0.03 0.05 0.04 0.03 0.02 0.03 0.03 0.02 0.03 0.02 0.02 0.02 0.01
0.05 0.06 0.09 0.09 0.08 0.07 0.08 0.08 0.09 0.09 0.08 0.06 0.05 0.04 0.03 0.02 0.02 0.03 0.03 0.05 0.06 0.06 0.04 0.03 0.03 0.04 0.03 0.04 0.04 0.04 0.04 0.04 0.04 0.02 0.02 0.02 0.02 0.03 0.02 0.03 0.03 0.02 0.01
0.06 0.06 0.08 0.09 0.07 0.08 0.08 0.06 0.09 0.09 0.08 0.08 0.06 0.06 0.06 0.06 0.03 0.03 0.03 0.05 0.05 0.06 0.07 0.06 0.04 0.03 0.03 0.03 0.02 0.03 0.03 0.04 0.04 0.03 0.03 0.03 0.03 0.03 0.02 0.03 0.02 0.02 0.02
0.07 0.07 0.06 0.07 0.06 0.08 0.08 0.09 0.09 0.09 0.08 0.06 0.04 0.06 0.06 0.06 0.05 0.05 0.06 0.07 0.08 0.06 0.07 0.09 0.08 0.04 0.02 0.02 0.02 0.01 0.02 0.03 0.03 0.03 0.03 0.04 0.03 0.03 0.03 0.03 0.02 0.02 0.02
0.05 0.06 0.06 0.08 0.06 0.06 0.06 0.07 0.09 0.09 0.10 0.08 0.07 0.08 0.06 0.06 0.06 0.05 0.05 0.06 0.06 0.05 0.06 0.06 0.08 0.08 0.04 0.02 0.02 0.02 0.02 0.03 0.04 0.04 0.04 0.04 0.04 0.04 0.05 0.04 0.03 0.03 0.03
0.05 0.04 0.05 0.06 0.06 0.06 0.08 0.07 0.08 0.10 0.10 0.09 0.09 0.11 0.11 0.11 0.08 0.05 0.04 0.04 0.05 0.05 0.05 0.05 0.06 0.09 0.09 0.05 0.03 0.02 0.02 0.03 0.04 0.04 0.04 0.04 0.04 0.05 0.05 0.05 0.05 0.04 0.03
0.04 0.04 0.04 0.05 0.06 0.07 0.07 0.07 0.07 0.08 0.10 0.10 0.11 0.12 0.12 0.12 0.11 0.08 0.06 0.03 0.03 0.04 0.05 0.06 0.05 0.07 0.08 0.10 0.09 0.04 0.02 0.02 0.02 0.03 0.03 0.04 0.04 0.04 0.03 0.02 0.03 0.03 0.03
0.03 0.03 0.05 0.05 0.05 0.06 0.06 0.06 0.06 0.07 0.08 0.08 0.10 0.11 0.10 0.11 0.12 0.10 0.09 0.06 0.04 0.05 0.04 0.05 0.06 0.07 0.08 0.09 0.09 0.06 0.04 0.02 0.02 0.03 0.03 0.03 0.03 0.03 0.02 0.02 0.02 0.02 0.03
0.04 0.03 0.04 0.05 0.05 0.05 0.04 0.05 0.06 0.06 0.06 0.06 0.07 0.09 0.09 0.10 0.10 0.10 0.11 0.11 0.09 0.07 0.06 0.06 0.07 0.08 0.07 0.08 0.08 0.07 0.07 0.04 0.02 0.02 0.03 0.03 0.03 0.02 0.01 0.02 0.02 0.03 0.03
0.04 0.04 0.04 0.05 0.06 0.06 0.05 0.04 0.04 0.04 0.05 0.05 0.05 0.07 0.08 0.09 0.10 0.11 0.10 0.11 0.11 0.10 0.07 0.07 0.06 0.08 0.08 0.09 0.08 0.08 0.07 0.03 0.02 0.02 0.02 0.04 0.04 0.02 0.01 0.02 0.02 0.02 0.02
0.06 0.07 0.05 0.07 0.07 0.07 0.06 0.06 0.05 0.04 0.04 0.03 0.04 0.06 0.06 0.07 0.09 0.11 0.12 0.12 0.12 0.12 0.11 0.10 0.07 0.06 0.05 0.06 0.06 0.07 0.08 0.05 0.02 0.02 0.02 0.01 0.04 0.03 0.01 0.01 0.01 0.02 0.02
0.06 0.06 0.06 0.05 0.06 0.07 0.06 0.07 0.06 0.05 0.04 0.04 0.04 0.05 0.05 0.06 0.08 0.09 0.12 0.14 0.13 0.13 0.13 0.12 0.08 0.07 0.05 0.04 0.05 0.05 0.06 0.05 0.03 0.02 0.02 0.01 0.01 0.01 0.01 0.01 0.01 0.01 0.01
0.05 0.03 0.03 0.03 0.04 0.05 0.05 0.06 0.06 0.06 0.06 0.05 0.04 0.04 0.05 0.06 0.06 0.06 0.07 0.10 0.12 0.12 0.12 0.13 0.10 0.08 0.05 0.04 0.06 0.05 0.05 0.05 0.04 0.03 0.02 0.02 0.01 0.01 0.00 0.00 0.01 0.01 0.01
0.04 0.03 0.02 0.03 0.03 0.04 0.04 0.05 0.05 0.05 0.06 0.06 0.06 0.05 0.05 0.04 0.04 0.05 0.06 0.07 0.11 0.15 0.14 0.12 0.12 0.09 0.07 0.05 0.05 0.04 0.05 0.06 0.05 0.04 0.02 0.02 0.02 0.02 0.01 0.01 0.01 0.01 0.01
0.04 0.03 0.02 0.02 0.03 0.03 0.03 0.05 0.04 0.05 0.05 0.06 0.06 0.05 0.06 0.06 0.06 0.07 0.07 0.07 0.09 0.13 0.12 0.11 0.12 0.10 0.09 0.08 0.07 0.04 0.03 0.03 0.04 0.04 0.03 0.02 0.03 0.02 0.02 0.02 0.01 0.01 0.01
0.02 0.03 0.03 0.02 0.02 0.02 0.02 0.03 0.02 0.03 0.04 0.03 0.04 0.04 0.05 0.06 0.07 0.09 0.10 0.09 0.11 0.13 0.12 0.11 0.11 0.10 0.09 0.08 0.08 0.06 0.03 0.02 0.03 0.04 0.02 0.02 0.03 0.03 0.04 0.03 0.02 0.02 0.01
0.02 0.02 0.03 0.02 0.02 0.02 0.02 0.02 0.02 0.02 0.03 0.03 0.02 0.02 0.03 0.04 0.04 0.06 0.08 0.09 0.10 0.11 0.13 0.10 0.11 0.11 0.09 0.09 0.09 0.06 0.04 0.05 0.02 0.03 0.03 0.03 0.04 0.06 0.08 0.07 0.05 0.03 0.02
0.02 0.02 0.03 0.03 0.03 0.02 0.02 0.03 0.03 0.03 0.03 0.03 0.03 0.02 0.02 0.03 0.04 0.05 0.06 0.07 0.08 0.10 0.12 0.11 0.11 0.13 0.13 0.12 0.10 0.08 0.08 0.07 0.04 0.02 0.02 0.03 0.05 0.09 0.13 0.12 0.08 0.04 0.02
0.02 0.02 0.02 0.02 0.02 0.03 0.03 0.03 0.03 0.04 0.05 0.05 0.05 0.04 0.04 0.04 0.05 0.05 0.03 0.04 0.06 0.08 0.10 0.11 0.12 0.12 0.11 0.11 0.11 0.10 0.09 0.09 0.08 0.06 0.05 0.04 0.04 0.05 0.06 0.06 0.06 0.04 0.03
0.02 0.01 0.01 0.01 0.01 0.02 0.03 0.02 0.02 0.03 0.04 0.04 0.05 0.06 0.06 0.05 0.04 0.03 0.03 0.03 0.04 0.05 0.06 0.07 0.09 0.11 0.11 0.10 0.10 0.11 0.10 0.09 0.10 0.09 0.07 0.05 0.04 0.04 0.04 0.04 0.03 0.02 0.02
0.02 0.02 0.01 0.02 0.02 0.02 0.02 0.01 0.01 0.02 0.04 0.05 0.05 0.05 0.03 0.04 0.04 0.02 0.02 0.03 0.03 0.04 0.04 0.05 0.07 0.10 0.11 0.11 0.11 0.11 0.14 0.13 0.10 0.08 0.07 0.04 0.04 0.04 0.03 0.02 0.02 0.01 0.01
0.02 0.02 0.02 0.02 0.02 0.02 0.01 0.01 0.01 0.01 0.03 0.03 0.04 0.04 0.03 0.03 0.04 0.03 0.03 0.03 0.03 0.03 0.03 0.03 0.04 0.07 0.09 0.11 0.09 0.08 0.10 0.12 0.12 0.10 0.10 0.08 0.05 0.04 0.03 0.02 0.02 0.02 0.02
0.02 0.02 0.02 0.01 0.01 0.02 0.01 0.00 0.00 0.01 0.02 0.02 0.02 0.02 0.02 0.02 0.02 0.02 0.03 0.04 0.04 0.03 0.03 0.04 0.04 0.03 0.05 0.09 0.08 0.08 0.10 0.08 0.08 0.09 0.08 0.08 0.07 0.06 0.05 0.04 0.04 0.03 0.02
0.01 0.01 0.01 0.01 0.01 0.01 0.00 0.00 0.00 0.01 0.01 0.01 0.01 0.01 0.01 0.01 0.01 0.02 0.02 0.04 0.04 0.03 0.03 0.04 0.05 0.06 0.05 0.06 0.08 0.08 0.10 0.09 0.07 0.07 0.08 0.07 0.07 0.08 0.07 0.06 0.05 0.03 0.03
MSLP
1008.13 1008.17 1008.18 1008.16 1008.12 1008.07 1008.01 1007.95 1007.87 1007.79 1007.68 1007.55 1007.41 1007.28 1007.17 1007.10 1007.10 1007.18 1007.34 1007.55 1007.80 1008.07 1008.31 1008.51 1008.65 1008.73 1008.75 1008.73 1008.66 1008.59 1008.50 1008.42 1008.33 1008.25 1008.17 1008.09 1008.01 1007.91 1007.82 1007.72 1007.61 1007.50 1007.39
1008.17 1008.24 1008.28 1008.28 1008.26 1008.22 1008.17 1008.11 1008.03 1007.94 1007.83 1007.69 1007.54 1007.39 1007.25 1007.14 1007.09 1007.12 1007.22 1007.41 1007.65 1007.93 1008.22 1008.48 1008.69 1008.84 1008.91 1008.92 1008.86 1008.77 1008.64 1008.50 1008.37 1008.24 1008.12 1008.00 1007.90 1007.80 1007.69 1007.58 1007.46 1007.34 1007.21
1008.24 1008.33 1008.40 1008.43 1008.44 1008.43 1008.39 1008.35 1008.28 1008.20 1008.09 1007.95 1007.79 1007.62 1007.44 1007.28 1007.16 1007.11 1007.14 1007.27 1007.48 1007.75 1008.06 1008.37 1008.65 1008.87 1009.00 1009.05 1009.02 1008.93 1008.78 1008.60 1008.42 1008.24 1008.08 1007.94 1007.81 1007.69 1007.57 1007.45 1007.32 1007.19 1007.05
1008.25 1008.37 1008.47 1008.55 1008.60 1008.62 1008.62 1008.59 1008.55 1008.49 1008.40 1008.28 1008.12 1007.93 1007.71 1007.50 1007.31 1007.17 1007.12 1007.16 1007.30 1007.54 1007.85 1008.18 1008.51 1008.79 1008.99 1009.10 1009.11 1009.03 1008.89 1008.70 1008.49 1008.28 1008.08 1007.91 1007.76 1007.61 1007.48 1007.34 1007.21 1007.06 1006.91
1008.18 1008.32 1008.46 1008.58 1008.67 1008.73 1008.77 1008.78 1008.77 1008.74 1008.68 1008.59 1008.45 1008.27 1008.04 1007.79 1007.53 1007.31 1007.16 1007.11 1007.17 1007.34 1007.61 1007.94 1008.29 1008.61 1008.87 1009.04 1009.11 1009.07 1008.95 1008.78 1008.57 1008.35 1008.13 1007.94 1007.76 1007.59 1007.43 1007.28 1007.12 1006.97 1006.81
1008.01 1008.18 1008.35 1008.51 1008.64 1008.74 1008.81 1008.86 1008.88 1008.89 1008.88 1008.83 1008.74 1008.59 1008.38 1008.12 1007.83 1007.54 1007.30 1007.15 1007.10 1007.18 1007.38 1007.67 1008.02 1008.36 1008.67 1008.89 1009.02 1009.05 1008.98 1008.85 1008.66 1008.45 1008.24 1008.03 1007.83 1007.64 1007.45 1007.26 1007.08 1006.90 1006.74
1007.77 1007.96 1008.17 1008.36 1008.52 1008.65 1008.74 1008.81 1008.86 1008.91 1008.96 1008.98 1008.96 1008.88 1008.72 1008.49 1008.19 1007.86 1007.55 1007.30 1007.15 1007.12 1007.23 1007.45 1007.75 1008.09 1008.42 1008.69 1008.88 1008.98 1008.99 1008.91 1008.78 1008.60 1008.40 1008.19 1007.97 1007.75 1007.52 1007.30 1007.08 1006.88 1006.69
1007.51 1007.72 1007.95 1008.16 1008.34 1008.47 1008.57 1008.65 1008.73 1008.81 1008.91 1009.01 1009.08 1009.09 1009.01 1008.85 1008.58 1008.25 1007.90 1007.57 1007.31 1007.17 1007.17 1007.30 1007.54 1007.84 1008.17 1008.48 1008.73 1008.90 1008.99 1008.99 1008.92 1008.79 1008.62 1008.42 1008.18 1007.93 1007.67 1007.39 1007.13 1006.88 1006.67
1007.26 1007.49 1007.73 1007.95 1008.12 1008.25 1008.34 1008.41 1008.49 1008.61 1008.76 1008.93 1009.10 1009.22 1009.25 1009.17 1008.97 1008.67 1008.30 1007.91 1007.58 1007.33 1007.22 1007.24 1007.40 1007.66 1007.97 1008.29 1008.59 1008.83 1008.99 1009.07 1009.08 1009.01 1008.88 1008.69 1008.45 1008.18 1007.87 1007.55 1007.23 1006.93 1006.68
1007.04 1007.27 1007.51 1007.73 1007.89 1008.00 1008.06 1008.12 1008.20 1008.33 1008.52 1008.77 1009.02 1009.25 1009.40 1009.42 1009.31 1009.05 1008.69 1008.28 1007.88 1007.55 1007.34 1007.27 1007.34 1007.54 1007.82 1008.15 1008.48 1008.77 1009.00 1009.16 1009.24 1009.24 1009.15 1008.99 1008.76 1008.47 1008.14 1007.77 1007.40 1007.05 1006.75
1006.80 1007.04 1007.28 1007.49 1007.64 1007.73 1007.77 1007.81 1007.88 1008.02 1008.25 1008.54 1008.88 1009.20 1009.44 1009.56 1009.53 1009.33 1009.00 1008.59 1008.15 1007.77 1007.48 1007.33 1007.33 1007.48 1007.73 1008.05 1008.40 1008.73 1009.02 1009.24 1009.39 1009.45 1009.42 1009.30 1009.09 1008.80 1008.45 1008.05 1007.64 1007.25 1006.90
1006.49 1006.74 1006.99 1007.20 1007.35 1007.43 1007.46 1007.49 1007.56 1007.71 1007.96 1008.29 1008.68 1009.06 1009.38 1009.58 1009.62 1009.47 1009.18 1008.77 1008.33 1007.91 1007.58 1007.38 1007.34 1007.44 1007.66 1007.97 1008.33 1008.69 1009.02 1009.29 1009.50 1009.61 1009.64 1009.57 1009.40 1009.14 1008.79 1008.40 1007.97 1007.55 1007.16
1006.06 1006.32 1006.59 1006.82 1006.99 1007.09 1007.14 1007.19 1007.27 1007.43 1007.70 1008.05 1008.46 1008.88 1009.24 1009.48 1009.55 1009.45 1009.18 1008.80 1008.36 1007.94 1007.60 1007.38 1007.31 1007.39 1007.60 1007.90 1008.26 1008.63 1008.98 1009.29 1009.53 1009.70 1009.78 1009.77 1009.65 1009.44 1009.15 1008.78 1008.36 1007.94 1007.54
1005.48 1005.77 1006.07 1006.35 1006.58 1006.73 1006.84 1006.93 1007.05 1007.23 1007.51 1007.87 1008.28 1008.70 1009.06 1009.30 1009.39 1009.29 1009.04 1008.68 1008.26 1007.86 1007.53 1007.31 1007.25 1007.33 1007.53 1007.82 1008.17 1008.54 1008.89 1009.21 1009.48 1009.68 1009.81 1009.86 1009.82 1009.69 1009.46 1009.16 1008.80 1008.40 1008.01
1004.79 1005.12 1005.49 1005.84 1006.15 1006.40 1006.59 1006.75 1006.93 1007.15 1007.44 1007.80 1008.19 1008.58 1008.90 1009.11 1009.17 1009.07 1008.82 1008.47 1008.08 1007.70 1007.40 1007.22 1007.17 1007.26 1007.46 1007.75 1008.08 1008.43 1008.76 1009.07 1009.33 1009.55 1009.72 1009.82 1009.86 1009.82 1009.69 1009.49 1009.21 1008.88 1008.53
1004.10 1004.49 1004.93 1005.38 1005.80 1006.15 1006.45 1006.71 1006.96 1007.23 1007.54 1007.89 1008.25 1008.58 1008.85 1009.00 1009.02 1008.88 1008.62 1008.27 1007.90 1007.56 1007.29 1007.15 1007.13 1007.23 1007.44 1007.71 1008.01 1008.32 1008.61 1008.87 1009.11 1009.32 1009.50 1009.64 1009.75 1009.80 1009.79 1009.70 1009.53 1009.31 1009.03
1003.54 1004.00 1004.54 1005.10 1005.63 1006.10 1006.51 1006.87 1007.20 1007.52 1007.84 1008.18 1008.49 1008.77 1008.97 1009.05 1009.01 1008.83 1008.55 1008.20 1007.85 1007.53 1007.31 1007.19 1007.20 1007.32 1007.52 1007.76 1008.01 1008.26 1008.47 1008.67 1008.84 1009.00 1009.17 1009.33 1009.48 1009.62 1009.71 1009.74 1009.70 1009.59 1009.42
1003.26 1003.80 1004.43 1005.09 1005.72 1006.29 1006.80 1007.24 1007.64 1008.00 1008.33 1008.65 1008.93 1009.15 1009.28 1009.31 1009.20 1008.99 1008.69 1008.34 1008.00 1007.71 1007.52 1007.43 1007.45 1007.57 1007.74 1007.94 1008.13 1008.29 1008.41 1008.51 1008.59 1008.68 1008.79 1008.93 1009.10 1009.28 1009.46 1009.60 1009.68 1009.70 1009.65
1003.36 1003.98 1004.69 1005.42 1006.12 1006.77 1007.34 1007.83 1008.26 1008.64 1008.98 1009.28 1009.53 1009.70 1009.79 1009.77 1009.63 1009.39 1009.08 1008.74 1008.42 1008.15 1007.97 1007.90 1007.92 1008.02 1008.16 1008.29 1008.40 1008.46 1008.47 1008.45 1008.41 1008.40 1008.43 1008.51 1008.66 1008.85 1009.08 1009.30 1009.48 1009.62 1009.69
1003.87 1004.56 1005.32 1006.09 1006.83 1007.49 1008.08 1008.58 1009.01 1009.39 1009.72 1010.00 1010.22 1010.38 1010.44 1010.40 1010.25 1010.02 1009.71 1009.39 1009.09 1008.84 1008.67 1008.60 1008.60 1008.67 1008.75 1008.81 1008.83 1008.79 1008.69 1008.54 1008.38 1008.25 1008.17 1008.17 1008.25 1008.42 1008.65 1008.91 1009.16 1009.39 1009.56
1004.73 1005.48 1006.26 1007.04 1007.76 1008.40 1008.95 1009.42 1009.82 1010.17 1010.47 1010.73 1010.94 1011.09 1011.16 1011.13 1011.01 1010.80 1010.53 1010.23 1009.95 1009.72 1009.55 1009.47 1009.44 1009.46 1009.48 1009.48 1009.41 1009.27 1009.06 1008.80 1008.53 1008.27 1008.08 1007.98 1007.98 1008.08 1008.28 1008.53 1008.81 1009.09 1009.33
1005.83 1006.62 1007.41 1008.15 1008.82 1009.39 1009.88 1010.28 1010.61 1010.91 1011.18 1011.42 1011.63 1011.79 1011.88 1011.89 1011.81 1011.64 1011.42 1011.16 1010.91 1010.69 1010.52 1010.41 1010.36 1010.33 1010.29 1010.22 1010.08 1009.87 1009.58 1009.23 1008.86 1008.51 1008.22 1008.02 1007.92 1007.94 1008.06 1008.27 1008.53 1008.82 1009.09
1007.03 1007.84 1008.61 1009.30 1009.89 1010.37 1010.76 1011.07 1011.33 1011.57 1011.79 1012.02 1012.23 1012.41 1012.54 1012.60 1012.57 1012.47 1012.30 1012.08 1011.86 1011.65 1011.47 1011.34 1011.24 1011.17 1011.09 1010.96 1010.78 1010.52 1010.19 1009.80 1009.37 1008.96 1008.59 1008.30 1008.11 1008.04 1008.08 1008.21 1008.42 1008.67 1008.93
1008.21 1009.02 1009.75 1010.37 1010.87 1011.25 1011.54 1011.76 1011.95 1012.13 1012.32 1012.53 1012.74 1012.94 1013.11 1013.22 1013.25 1013.20 1013.07 1012.90 1012.69 1012.49 1012.30 1012.14 1012.01 1011.90 1011.78 1011.63 1011.43 1011.16 1010.82 1010.42 1009.99 1009.56 1009.15 1008.81 1008.56 1008.40 1008.35 1008.39 1008.52 1008.70 1008.91
1009.27 1010.07 1010.75 1011.30 1011.72 1012.02 1012.22 1012.37 1012.49 1012.62 1012.78 1012.97 1013.19 1013.41 1013.60 1013.74 1013.81 1013.80 1013.71 1013.55 1013.36 1013.15 1012.94 1012.76 1012.60 1012.46 1012.32 1012.16 1011.96 1011.71 1011.40 1011.04 1010.64 1010.23 1009.83 1009.47 1009.18 1008.96 1008.83 1008.78 1008.81 1008.90 1009.03
1010.18 1010.95 1011.59 1012.08 1012.44 1012.67 1012.81 1012.91 1012.99 1013.09 1013.23 1013.41 1013.62 1013.83 1014.03 1014.18 1014.26 1014.26 1014.18 1014.04 1013.84 1013.62 1013.40 1013.19 1013.01 1012.84 1012.69 1012.53 1012.36 1012.14 1011.89 1011.59 1011.25 1010.89 1010.53 1010.18 1009.88 1009.62 1009.43 1009.30 1009.24 1009.23 1009.27
Thickness
5766 5765 5764 5763 5763 5761 5760 5759 5759 5759 5759 5759 5759 5759 5758 5757 5755 5752 5749 5747 5745 5743 5742 5740 5738 5737 5735 5733 5731 5730 5728 5727 5726 5724 5723 5721 5720 5720 5718 5717 5715 5714 5712
5765 5764 5763 5762 5762 5761 5760 5759 5759 5759 5758 5758 5758 5758 5757 5756 5754 5752 5748 5745 5744 5742 5741 5739 5737 5735 5733 5732 5730 5728 5727 5726 5725 5723 5722 5721 5720 5718 5717 5715 5714 5712 5710
5764 5763 5762 5762 5761 5760 5759 5759 5758 5758 5758 5758 5757 5757 5756 5755 5753 5752 5749 5746 5743 5741 5740 5738 5736 5734 5732 5730 5729 5727 5725 5724 5723 5722 5721 5720 5719 5717 5716 5714 5712 5711 5709
5763 5762 5761 5760 5760 5759 5758 5757 5756 5755 5755 5755 5755 5756 5756 5754 5753 5752 5750 5747 5744 5742 5740 5738 5736 5733 5731 5729 5728 5726 5724 5723 5722 5721 5720 5719 5718 5717 5715 5713 5711 5710 5708
5761 5760 5759 5758 5758 5757 5757 5756 5754 5753 5751 5752 5753 5754 5754 5753 5753 5753 5750 5748 5746 5743 5740 5738 5735 5733 5730 5728 5727 5725 5724 5723 5722 5720 5719 5718 5717 5716 5715 5713 5711 5709 5707
5760 5758 5757 5756 5755 5754 5753 5753 5751 5752 5751 5751 5752 5753 5754 5754 5753 5752 5750 5749 5747 5745 5742 5739 5735 5732 5730 5728 5726 5725 5723 5722 5721 5720 5719 5718 5717 5715 5714 5712 5710 5708 5706
5758 5757 5755 5754 5753 5752 5751 5751 5750 5748 5748 5749 5747 5746 5750 5754 5752 5751 5750 5749 5747 5745 5742 5739 5736 5733 5730 5727 5726 5724 5723 5722 5721 5719 5718 5717 5716 5714 5713 5712 5710 5708 5705
5756 5756 5753 5752 5751 5749 5748 5748 5747 5744 5745 5746 5741 5738 5736 5740 5745 5750 5748 5746 5746 5744 5742 5740 5737 5734 5732 5729 5726 5724 5722 5721 5720 5719 5718 5716 5715 5713 5712 5711 5709 5707 5705
5755 5754 5753 5751 5749 5748 5746 5746 5745 5742 5740 5743 5743 5736 5729 5726 5733 5741 5743 5744 5743 5742 5741 5740 5738 5735 5733 5731 5727 5724 5722 5721 5719 5718 5717 5715 5714 5712 5711 5710 5708 5707 5704
5753 5752 5751 5749 5747 5746 5744 5744 5744 5742 5740 5737 5739 5739 5736 5733 5726 5726 5733 5738 5740 5739 5738 5738 5737 5735 5732 5729 5727 5724 5722 5720 5719 5717 5716 5714 5713 5711 5710 5708 5707 5706 5704
5751 5750 5748 5747 5745 5744 5743 5742 5741 5740 5739 5736 5734 5734 5733 5732 5730 5723 5721 5726 5731 5735 5736 5735 5734 5732 5730 5728 5725 5723 5721 5719 5717 5716 5714 5713 5711 5710 5708 5707 5706 5705 5703
5747 5746 5746 5744 5743 5741 5740 5739 5738 5737 5735 5734 5733 5732 5730 5727 5725 5723 5719 5720 5722 5727 5731 5732 5730 5729 5727 5725 5723 5721 5719 5717 5715 5714 5713 5711 5710 5708 5707 5706 5704 5703 5701
5742 5742 5743 5741 5739 5738 5737 5736 5735 5733 5732 5731 5729 5729 5729 5728 5728 5724 5720 5718 5718 5721 5725 5726 5727 5725 5724 5721 5720 5718 5716 5714 5713 5712 5711 5710 5708 5707 5705 5704 5703 5701 5700
5740 5739 5738 5737 5736 5735 5734 5732 5731 5730 5729 5728 5727 5726 5726 5726 5726 5724 5720 5715 5712 5714 5717 5718 5722 5722 5720 5719 5717 5715 5712 5712 5711 5710 5709 5708 5707 5705 5704 5702 5701 5699 5698
5737 5735 5734 5733 5731 5730 5730 5728 5727 5725 5725 5724 5723 5722 5721 5722 5723 5723 5721 5717 5710 5705 5706 5712 5714 5717 5717 5715 5714 5712 5710 5710 5709 5708 5707 5706 5705 5703 5702 5700 5698 5697 5696
5731 5730 5728 5726 5725 5724 5724 5723 5722 5721 5720 5719 5719 5718 5717 5717 5717 5718 5717 5716 5713 5707 5703 5708 5710 5712 5712 5711 5710 5709 5708 5707 5706 5705 5704 5704 5702 5701 5700 5698 5696 5695 5694
5726 5724 5722 5720 5719 5717 5717 5716 5716 5716 5714 5714 5714 5713 5712 5712 5711 5711 5711 5710 5709 5707 5701 5703 5707 5708 5707 5705 5704 5705 5704 5704 5703 5702 5702 5701 5700 5699 5698 5696 5694 5692 5691
5720 5718 5716 5715 5713 5712 5711 5710 5709 5709 5708 5707 5707 5707 5706 5707 5705 5705 5704 5704 5703 5703 5699 5697 5699 5701 5701 5701 5700 5700 5701 5701 5701 5700 5700 5699 5698 5696 5695 5693 5692 5690 5689
5714 5713 5711 5708 5707 5705 5705 5704 5703 5703 5702 5702 5701 5700 5699 5699 5698 5698 5698 5698 5698 5699 5697 5694 5694 5696 5696 5696 5695 5695 5697 5697 5698 5697 5696 5695 5694 5693 5692 5691 5689 5687 5686
5708 5706 5704 5703 5701 5700 5698 5697 5696 5696 5696 5696 5696 5694 5693 5692 5691 5691 5691 5691 5691 5691 5691 5690 5689 5689 5689 5691 5690 5688 5688 5690 5691 5692 5691 5690 5690 5689 5688 5688 5686 5684 5682
5703 5701 5698 5696 5695 5693 5691 5689 5689 5690 5689 5689 5689 5688 5688 5686 5685 5685 5685 5684 5684 5683 5683 5683 5682 5682 5682 5681 5681 5682 5681 5682 5684 5686 5685 5686 5685 5684 5683 5683 5682 5681 5679
5697 5694 5692 5690 5688 5686 5682 5681 5681 5682 5682 5682 5681 5681 5681 5679 5678 5678 5678 5677 5677 5676 5675 5675 5675 5674 5675 5676 5677 5677 5676 5674 5675 5680 5680 5680 5681 5680 5680 5679 5679 5678 5676
5690 5687 5685 5683 5680 5677 5676 5674 5674 5674 5674 5675 5674 5674 5675 5675 5672 5672 5672 5672 5671 5671 5669 5669 5668 5668 5669 5671 5671 5670 5670 5670 5671 5674 5674 5673 5676 5674 5675 5675 5674 5673 5672
5684 5681 5679 5677 5674 5671 5669 5667 5666 5667 5668 5668 5668 5667 5666 5665 5664 5663 5665 5666 5666 5666 5665 5664 5664 5665 5666 5667 5667 5667 5667 5667 5669 5670 5670 5667 5668 5668 5670 5669 5670 5669 5667
5679 5676 5674 5671 5668 5665 5662 5661 5659 5660 5661 5661 5661 5660 5659 5657 5655 5655 5657 5657 5658 5658 5660 5660 5659 5660 5660 5661 5661 5660 5660 5659 5659 5661 5663 5661 5661 5662 5662 5663 5663 5662 5661
5674 5671 5669 5666 5663 5660 5656 5654 5653 5654 5653 5652 5653 5652 5651 5649 5648 5647 5647 5648 5648 5650 5651 5652 5652 5653 5655 5655 5655 5655 5655 5653 5653 5653 5657 5656 5655 5654 5654 5657 5658 5656 5655